When you browse on this site, cookies collect data to enhance your experience and personalize the content and advertising you see.
Visit our Privacy Policy to learn more. By continuing to use the site, you agree to this use of cookies and data.
  • Em Portugal
  • Lista de países
  • Para 7 dias
  • Temperatura da água
  • Mapas de satélite
  • Mapa do tempo
  • Widgets de tempo
  • user-avatar
    Iniciar Sessão

    Previsão horária em Ludwinowo

    Hoje, 16 Janeiro, Quarta-feira

    Tempo Temperatura Precipitação Vento Pressão Humidade
    00:00 -4°C° 0.4 mm 2 m/s 731 mmHg 93%
    01:00 -4°C° 0.4 mm 2 m/s 731 mmHg 95%
    02:00 -4°C° 0 mm 0 m/s 731 mmHg 97%
    03:00 -3°C° 0.1 mm 1 m/s 731 mmHg 96%
    04:00 -5°C° 0.1 mm 2 m/s 732 mmHg 96%
    05:00 -6°C° 0.1 mm 2 m/s 733 mmHg 95%
    06:00 -5°C° 0 mm 2 m/s 734 mmHg 95%
    07:00 -5°C° 0 mm 2 m/s 735 mmHg 95%
    08:00 -5°C° 0 mm 2 m/s 735 mmHg 94%
    09:00 -4°C° 0 mm 2 m/s 736 mmHg 94%
    10:00 -4°C° 0 mm 2 m/s 736 mmHg 94%
    11:00 -4°C° 0 mm 2 m/s 737 mmHg 94%
    12:00 -3°C° 0 mm 2 m/s 737 mmHg 93%
    13:00 -3°C° 0 mm 2 m/s 737 mmHg 92%
    14:00 -2°C° 0 mm 2 m/s 737 mmHg 91%
    15:00 -2°C° 0 mm 3 m/s 737 mmHg 92%
    16:00 -2°C° 0 mm 3 m/s 737 mmHg 93%
    17:00 -2°C° 0 mm 3 m/s 737 mmHg 94%
    18:00 -2°C° 0.2 mm 4 m/s 736 mmHg 95%
    19:00 -2°C° 0.2 mm 4 m/s 736 mmHg 96%
    20:00 -1°C° 0.2 mm 5 m/s 736 mmHg 97%
    21:00 -1°C° 0 mm 5 m/s 736 mmHg 97%
    22:00 -1°C° 0 mm 5 m/s 736 mmHg 97%
    23:00 0°C° 0 mm 5 m/s 735 mmHg 96%

    Amanhã, 17 Janeiro, Quinta-feira

    Tempo Temperatura Precipitação Vento Pressão Humidade
    00:00 0°C° 0.1 mm 5 m/s 735 mmHg 97%
    01:00 -1°C° 0.1 mm 6 m/s 735 mmHg 97%
    02:00 -1°C° 0.1 mm 6 m/s 735 mmHg 98%
    03:00 -1°C° 0.2 mm 6 m/s 734 mmHg 97%
    04:00 -1°C° 0.2 mm 6 m/s 734 mmHg 96%
    05:00 -1°C° 0.2 mm 7 m/s 733 mmHg 96%
    06:00 -1°C° 0.3 mm 7 m/s 733 mmHg 94%
    07:00 -2°C° 0.3 mm 7 m/s 732 mmHg 93%
    08:00 -2°C° 0.3 mm 8 m/s 731 mmHg 91%
    09:00 -2°C° 0.1 mm 8 m/s 731 mmHg 89%
    10:00 -2°C° 0.1 mm 8 m/s 731 mmHg 87%
    11:00 -2°C° 0.1 mm 8 m/s 731 mmHg 86%
    12:00 -1°C° 0.1 mm 8 m/s 731 mmHg 87%
    13:00 -1°C° 0.1 mm 8 m/s 731 mmHg 89%
    14:00 -1°C° 0.1 mm 7 m/s 731 mmHg 91%
    15:00 -1°C° 0 mm 7 m/s 731 mmHg 89%
    16:00 -1°C° 0 mm 7 m/s 731 mmHg 87%
    17:00 -1°C° 0 mm 6 m/s 731 mmHg 84%
    18:00 -1°C° 0 mm 6 m/s 732 mmHg 85%
    19:00 -1°C° 0 mm 6 m/s 732 mmHg 85%
    20:00 -1°C° 0 mm 6 m/s 732 mmHg 86%
    21:00 -2°C° 0 mm 6 m/s 732 mmHg 86%
    22:00 -2°C° 0 mm 6 m/s 732 mmHg 87%
    23:00 -2°C° 0 mm 6 m/s 732 mmHg 88%

    Depois de amanhã, 18 Janeiro, Sexta-feira

    Tempo Temperatura Precipitação Vento Pressão Humidade
    00:00 -2°C° 0.8 mm 6 m/s 732 mmHg 90%
    01:00 -1°C° 0.8 mm 5 m/s 732 mmHg 92%
    02:00 -1°C° 0.8 mm 5 m/s 731 mmHg 94%
    03:00 -2°C° 0 mm 5 m/s 731 mmHg 90%
    04:00 -4°C° 0 mm 5 m/s 731 mmHg 86%
    05:00 -5°C° 0 mm 6 m/s 731 mmHg 82%
    06:00 -5°C° 0.4 mm 6 m/s 731 mmHg 85%
    07:00 -6°C° 0.4 mm 7 m/s 732 mmHg 87%
    08:00 -6°C° 0.4 mm 8 m/s 732 mmHg 90%
    09:00 -6°C° 0.5 mm 8 m/s 733 mmHg 89%
    10:00 -6°C° 0.5 mm 8 m/s 734 mmHg 88%
    11:00 -5°C° 0.5 mm 8 m/s 735 mmHg 87%
    12:00 -6°C° 0.1 mm 7 m/s 736 mmHg 87%
    13:00 -5°C° 0.1 mm 6 m/s 737 mmHg 86%
    14:00 -5°C° 0.1 mm 5 m/s 738 mmHg 86%
    15:00 -5°C° 0.1 mm 5 m/s 740 mmHg 84%
    16:00 -5°C° 0.1 mm 5 m/s 741 mmHg 82%
    17:00 -6°C° 0.1 mm 5 m/s 742 mmHg 81%
    18:00 -6°C° 0 mm 5 m/s 743 mmHg 83%
    19:00 -6°C° 0 mm 5 m/s 743 mmHg 84%
    20:00 -7°C° 0 mm 4 m/s 744 mmHg 86%
    21:00 -7°C° 0 mm 4 m/s 744 mmHg 86%
    22:00 -7°C° 0 mm 5 m/s 745 mmHg 87%
    23:00 -7°C° 0 mm 5 m/s 746 mmHg 87%

    19 Janeiro, Sábado

    Tempo Temperatura Precipitação Vento Pressão Humidade
    00:00 -7°C° 0 mm 4 m/s 746 mmHg 87%
    01:00 -8°C° 0 mm 4 m/s 746 mmHg 88%
    02:00 -8°C° 0 mm 4 m/s 747 mmHg 88%
    03:00 -8°C° 0 mm 4 m/s 747 mmHg 90%
    04:00 -8°C° 0 mm 4 m/s 747 mmHg 91%
    05:00 -7°C° 0 mm 3 m/s 747 mmHg 92%
    06:00 -8°C° 0.2 mm 4 m/s 747 mmHg 92%
    07:00 -7°C° 0.2 mm 4 m/s 747 mmHg 93%
    08:00 -7°C° 0.2 mm 5 m/s 747 mmHg 93%
    09:00 -6°C° 0.2 mm 5 m/s 747 mmHg 92%
    10:00 -5°C° 0.2 mm 5 m/s 747 mmHg 90%
    11:00 -4°C° 0.2 mm 6 m/s 747 mmHg 89%
    12:00 -4°C° 0 mm 5 m/s 747 mmHg 89%
    13:00 -4°C° 0 mm 5 m/s 747 mmHg 89%
    14:00 -3°C° 0 mm 4 m/s 747 mmHg 90%
    15:00 -3°C° 0 mm 4 m/s 747 mmHg 91%
    16:00 -4°C° 0 mm 3 m/s 747 mmHg 92%
    17:00 -5°C° 0 mm 3 m/s 747 mmHg 93%
    18:00 -6°C° 0 mm 3 m/s 747 mmHg 93%
    19:00 -6°C° 0 mm 3 m/s 747 mmHg 94%
    20:00 -7°C° 0 mm 3 m/s 747 mmHg 94%
    21:00 -7°C° 0 mm 3 m/s 747 mmHg 95%
    22:00 -7°C° 0 mm 3 m/s 747 mmHg 95%
    23:00 -7°C° 0 mm 3 m/s 747 mmHg 95%

    20 Janeiro, Domingo

    Tempo Temperatura Precipitação Vento Pressão Humidade
    00:00 -7°C° 0 mm 3 m/s 747 mmHg 95%
    01:00 -7°C° 0 mm 3 m/s 747 mmHg 96%
    02:00 -7°C° 0 mm 3 m/s 747 mmHg 96%
    03:00 -7°C° 0.1 mm 3 m/s 747 mmHg 96%
    04:00 -6°C° 0.1 mm 3 m/s 747 mmHg 95%
    05:00 -6°C° 0.1 mm 3 m/s 747 mmHg 95%
    06:00 -6°C° 0.3 mm 3 m/s 747 mmHg 95%
    07:00 -4°C° 0.3 mm 2 m/s 747 mmHg 96%
    08:00 -4°C° 0.3 mm 2 m/s 746 mmHg 96%
    09:00 -4°C° 0.2 mm 2 m/s 746 mmHg 96%
    10:00 -3°C° 0.2 mm 2 m/s 747 mmHg 96%
    11:00 -3°C° 0.2 mm 2 m/s 747 mmHg 95%
    12:00 -2°C° 0.1 mm 3 m/s 746 mmHg 92%
    13:00 -2°C° 0.1 mm 3 m/s 746 mmHg 88%
    14:00 -2°C° 0.1 mm 3 m/s 746 mmHg 84%
    15:00 -2°C° 0.1 mm 3 m/s 746 mmHg 85%
    16:00 -4°C° 0.1 mm 3 m/s 746 mmHg 86%
    17:00 -5°C° 0.1 mm 3 m/s 746 mmHg 87%
    18:00 -6°C° 0 mm 3 m/s 747 mmHg 88%
    19:00 -7°C° 0 mm 3 m/s 747 mmHg 89%
    20:00 -8°C° 0 mm 3 m/s 748 mmHg 89%
    21:00 -8°C° 0 mm 3 m/s 748 mmHg 90%
    22:00 -9°C° 0 mm 3 m/s 749 mmHg 90%
    23:00 -9°C° 0 mm 3 m/s 750 mmHg 90%

    21 Janeiro, Segunda-feira

    Tempo Temperatura Precipitação Vento Pressão Humidade
    00:00 -9°C° 0 mm 3 m/s 750 mmHg 91%
    01:00 -9°C° 0 mm 3 m/s 750 mmHg 91%
    02:00 -9°C° 0 mm 3 m/s 751 mmHg 92%
    03:00 -9°C° 0 mm 3 m/s 751 mmHg 92%
    04:00 -9°C° 0 mm 3 m/s 751 mmHg 93%
    05:00 -9°C° 0 mm 3 m/s 752 mmHg 94%
    06:00 -9°C° 0 mm 3 m/s 752 mmHg 94%
    07:00 -9°C° 0 mm 3 m/s 752 mmHg 94%
    08:00 -10°C° 0 mm 3 m/s 753 mmHg 94%
    09:00 -9°C° 0 mm 3 m/s 753 mmHg 92%
    10:00 -7°C° 0 mm 2 m/s 754 mmHg 91%
    11:00 -6°C° 0 mm 2 m/s 754 mmHg 89%
    12:00 -6°C° 0 mm 2 m/s 754 mmHg 89%
    13:00 -6°C° 0 mm 3 m/s 754 mmHg 88%
    14:00 -5°C° 0 mm 3 m/s 755 mmHg 88%
    15:00 -5°C° 0 mm 2 m/s 755 mmHg 89%
    16:00 -5°C° 0 mm 2 m/s 755 mmHg 90%
    17:00 -6°C° 0 mm 2 m/s 755 mmHg 92%
    18:00 -6°C° 0 mm 2 m/s 755 mmHg 91%
    19:00 -6°C° 0 mm 2 m/s 755 mmHg 90%
    20:00 -7°C° 0 mm 2 m/s 755 mmHg 88%
    21:00 -8°C° 0 mm 3 m/s 755 mmHg 89%
    22:00 -8°C° 0 mm 3 m/s 755 mmHg 89%
    23:00 -8°C° 0 mm 3 m/s 755 mmHg 89%
    Mostrar mais